Time,TemperatureF,DewpointF,PressureIn,WindDirection,WindDirectionDegrees,WindSpeedMPH,WindSpeedGustMPH,Humidity,HourlyPrecipIn,Conditions,Clouds,dailyrainin,SoftwareType,DateUTC
2013-08-09 00:00:00,70.8,69.6,29.95,NE,39,0.0,7.0,96,0.00,,,0.00,Wunderground v.1.15,2013-08-09 04:00:00,
2013-08-09 00:05:00,70.8,69.6,29.95,NE,39,0.0,7.0,96,0.00,,,0.00,Wunderground v.1.15,2013-08-09 04:05:00,
2013-08-09 00:10:00,70.8,69.6,29.95,NE,39,0.0,7.0,96,0.00,,,0.00,Wunderground v.1.15,2013-08-09 04:10:00,
2013-08-09 00:15:00,70.8,69.6,29.95,NE,40,0.0,7.0,96,0.00,,,0.00,Wunderground v.1.15,2013-08-09 04:15:00,
2013-08-09 00:20:00,70.8,69.6,29.95,NE,40,0.0,7.0,96,0.00,,,0.00,Wunderground v.1.15,2013-08-09 04:20:00,
2013-08-09 00:25:00,70.8,69.6,29.95,SE,134,0.0,7.0,96,0.00,,,0.00,Wunderground v.1.15,2013-08-09 04:25:00,
2013-08-09 00:30:00,70.7,69.5,29.94,SE,134,0.0,7.0,96,0.00,,,0.00,Wunderground v.1.15,2013-08-09 04:30:00,
2013-08-09 00:35:00,70.6,69.4,29.95,SE,134,0.0,7.0,96,0.00,,,0.00,Wunderground v.1.15,2013-08-09 04:35:00,
2013-08-09 00:40:00,70.6,69.4,29.94,SE,134,0.0,7.0,96,0.00,,,0.00,Wunderground v.1.15,2013-08-09 04:40:00,
2013-08-09 00:45:00,70.6,69.4,29.94,SE,136,0.0,7.0,96,0.00,,,0.00,Wunderground v.1.15,2013-08-09 04:45:00,
2013-08-09 00:50:00,70.6,69.4,29.94,SE,136,0.0,7.0,96,0.00,,,0.00,Wunderground v.1.15,2013-08-09 04:50:00,
2013-08-09 00:55:00,70.6,69.4,29.94,SE,136,0.0,7.0,96,0.00,,,0.00,Wunderground v.1.15,2013-08-09 04:55:00,
2013-08-09 01:00:00,70.6,69.4,29.94,ESE,117,0.0,7.0,96,0.00,,,0.00,Wunderground v.1.15,2013-08-09 05:00:00,
2013-08-09 01:05:00,70.6,69.4,29.94,ESE,121,0.0,7.0,96,0.00,,,0.00,Wunderground v.1.15,2013-08-09 05:05:00,
2013-08-09 01:10:00,70.6,69.4,29.94,SE,146,0.0,7.0,96,0.00,,,0.00,Wunderground v.1.15,2013-08-09 05:10:00,
2013-08-09 01:15:00,70.6,69.4,29.93,SSE,157,0.0,7.0,96,0.00,,,0.00,Wunderground v.1.15,2013-08-09 05:15:00,
2013-08-09 01:20:00,70.6,69.4,29.93,SSE,157,0.0,7.0,96,0.00,,,0.00,Wunderground v.1.15,2013-08-09 05:20:00,
2013-08-09 01:25:00,70.6,69.4,29.93,SSE,160,0.0,7.0,96,0.00,,,0.00,Wunderground v.1.15,2013-08-09 05:25:00,
2013-08-09 01:30:00,70.6,69.4,29.93,SSE,160,0.0,7.0,96,0.00,,,0.00,Wunderground v.1.15,2013-08-09 05:30:00,
2013-08-09 01:35:00,70.6,69.4,29.93,SSE,167,0.0,7.0,96,0.00,,,0.00,Wunderground v.1.15,2013-08-09 05:35:00,
2013-08-09 01:40:00,70.6,69.4,29.93,SSE,151,1.0,7.0,96,0.00,,,0.00,Wunderground v.1.15,2013-08-09 05:40:00,
2013-08-09 01:45:00,70.6,69.4,29.93,SSE,167,0.0,7.0,96,0.00,,,0.00,Wunderground v.1.15,2013-08-09 05:45:00,
2013-08-09 01:50:00,70.6,69.4,29.93,SSE,159,1.0,7.0,96,0.00,,,0.00,Wunderground v.1.15,2013-08-09 05:50:00,
2013-08-09 01:55:00,70.6,69.4,29.92,SSE,167,1.0,7.0,96,0.00,,,0.01,Wunderground v.1.15,2013-08-09 05:55:00,
2013-08-09 02:00:00,70.6,69.4,29.92,South,173,1.0,1.0,96,0.07,,,0.02,Wunderground v.1.15,2013-08-09 06:00:00,
2013-08-09 02:05:00,70.6,69.4,29.92,SE,142,1.0,7.0,96,0.07,,,0.02,Wunderground v.1.15,2013-08-09 06:05:00,
2013-08-09 02:10:00,70.6,69.4,29.92,South,178,1.0,1.0,96,0.05,,,0.02,Wunderground v.1.15,2013-08-09 06:10:00,
2013-08-09 02:15:00,70.6,69.7,29.92,South,175,1.0,3.0,97,0.04,,,0.02,Wunderground v.1.15,2013-08-09 06:15:00,
2013-08-09 02:20:00,70.6,69.7,29.92,South,170,1.0,7.0,97,0.00,,,0.03,Wunderground v.1.15,2013-08-09 06:20:00,
2013-08-09 02:30:00,70.6,69.7,29.92,South,171,1.0,1.0,97,0.00,,,0.03,Wunderground v.1.15,2013-08-09 06:30:00,
2013-08-09 02:35:00,70.6,69.7,29.92,South,182,1.0,7.0,97,0.04,,,0.04,Wunderground v.1.15,2013-08-09 06:35:00,
2013-08-09 02:40:00,70.5,69.6,29.92,South,174,1.0,1.0,97,0.04,,,0.04,Wunderground v.1.15,2013-08-09 06:40:00,
2013-08-09 02:45:00,70.6,69.7,29.92,South,169,1.0,2.0,97,0.04,,,0.04,Wunderground v.1.15,2013-08-09 06:45:00,
2013-08-09 02:50:00,70.6,69.7,29.92,SE,133,1.0,1.0,97,0.00,,,0.04,Wunderground v.1.15,2013-08-09 06:50:00,
2013-08-09 02:55:00,70.6,69.7,29.92,SE,134,1.0,7.0,97,0.00,,,0.05,Wunderground v.1.15,2013-08-09 06:55:00,
2013-08-09 03:00:00,70.6,69.7,29.92,SSE,166,1.0,7.0,97,0.00,,,0.05,Wunderground v.1.15,2013-08-09 07:00:00,
2013-08-09 03:05:00,70.6,69.7,29.92,SSE,166,1.0,7.0,97,0.06,,,0.06,Wunderground v.1.15,2013-08-09 07:05:00,
2013-08-09 03:10:00,70.6,69.7,29.92,SSE,166,0.0,7.0,97,0.09,,,0.07,Wunderground v.1.15,2013-08-09 07:10:00,
2013-08-09 03:15:00,70.6,69.7,29.92,SSE,159,0.0,7.0,97,0.08,,,0.07,Wunderground v.1.15,2013-08-09 07:15:00,
2013-08-09 03:20:00,70.6,69.7,29.92,SSE,159,0.0,7.0,97,0.07,,,0.08,Wunderground v.1.15,2013-08-09 07:20:00,
2013-08-09 03:25:00,70.6,69.7,29.92,SSE,159,0.0,7.0,97,0.07,,,0.08,Wunderground v.1.15,2013-08-09 07:25:00,
2013-08-09 03:30:00,70.6,69.7,29.92,SSE,159,0.0,7.0,97,0.05,,,0.08,Wunderground v.1.15,2013-08-09 07:30:00,
2013-08-09 03:35:00,70.6,69.7,29.92,SSE,159,0.0,7.0,97,0.04,,,0.09,Wunderground v.1.15,2013-08-09 07:35:00,
2013-08-09 03:40:00,70.6,69.7,29.92,SSE,159,0.0,7.0,97,0.04,,,0.09,Wunderground v.1.15,2013-08-09 07:40:00,
2013-08-09 03:45:00,70.6,69.7,29.92,East,97,0.0,7.0,97,0.05,,,0.10,Wunderground v.1.15,2013-08-09 07:45:00,
2013-08-09 03:50:00,70.6,69.7,29.92,SSE,162,0.0,7.0,97,0.05,,,0.10,Wunderground v.1.15,2013-08-09 07:50:00,
2013-08-09 03:55:00,70.6,69.7,29.91,SSE,163,0.0,7.0,97,0.05,,,0.10,Wunderground v.1.15,2013-08-09 07:55:00,
2013-08-09 04:00:00,70.6,69.7,29.91,ESE,102,0.0,7.0,97,0.00,,,0.10,Wunderground v.1.15,2013-08-09 08:00:00,
2013-08-09 04:05:00,70.6,69.7,29.91,SSE,159,0.0,7.0,97,0.00,,,0.10,Wunderground v.1.15,2013-08-09 08:05:00,
2013-08-09 04:10:00,70.6,69.7,29.91,SSE,159,0.0,7.0,97,0.00,,,0.10,Wunderground v.1.15,2013-08-09 08:10:00,
2013-08-09 04:15:00,70.6,69.7,29.91,South,171,0.0,7.0,97,0.00,,,0.10,Wunderground v.1.15,2013-08-09 08:15:00,
2013-08-09 04:20:00,70.6,69.7,29.90,South,183,1.0,7.0,97,0.00,,,0.10,Wunderground v.1.15,2013-08-09 08:20:00,
2013-08-09 04:25:00,70.6,69.7,29.90,South,183,1.0,7.0,97,0.00,,,0.10,Wunderground v.1.15,2013-08-09 08:25:00,
2013-08-09 04:30:00,70.6,69.7,29.90,South,176,0.0,7.0,97,0.00,,,0.10,Wunderground v.1.15,2013-08-09 08:30:00,
2013-08-09 04:35:00,70.6,69.7,29.90,SSE,167,0.0,7.0,97,0.00,,,0.10,Wunderground v.1.15,2013-08-09 08:35:00,
2013-08-09 04:40:00,70.6,69.7,29.89,South,176,1.0,1.0,97,0.00,,,0.10,Wunderground v.1.15,2013-08-09 08:40:00,
2013-08-09 04:45:00,70.6,69.7,29.89,SE,146,1.0,1.0,97,0.00,,,0.11,Wunderground v.1.15,2013-08-09 08:45:00,
2013-08-09 04:50:00,70.6,69.7,29.89,SSW,207,0.0,1.0,97,0.00,,,0.11,Wunderground v.1.15,2013-08-09 08:50:00,
2013-08-09 04:55:00,70.6,69.7,29.89,South,182,0.0,1.0,97,0.00,,,0.11,Wunderground v.1.15,2013-08-09 08:55:00,
2013-08-09 05:00:00,70.6,69.7,29.89,South,170,0.0,0.0,97,0.05,,,0.12,Wunderground v.1.15,2013-08-09 09:00:00,
2013-08-09 05:05:00,70.6,69.7,29.89,SSE,150,0.0,0.0,97,0.09,,,0.13,Wunderground v.1.15,2013-08-09 09:05:00,
2013-08-09 05:10:00,70.6,69.7,29.89,SSE,149,0.0,0.0,97,0.20,,,0.15,Wunderground v.1.15,2013-08-09 09:10:00,
2013-08-09 05:15:00,70.6,69.7,29.90,South,185,0.0,0.0,97,1.34,,,0.21,Wunderground v.1.15,2013-08-09 09:15:00,
2013-08-09 05:20:00,70.6,69.7,29.90,South,179,0.0,0.0,97,0.74,,,0.27,Wunderground v.1.15,2013-08-09 09:20:00,
2013-08-09 05:25:00,70.6,69.7,29.90,South,190,1.0,1.0,97,2.17,,,0.43,Wunderground v.1.15,2013-08-09 09:25:00,
2013-08-09 05:30:00,70.7,69.8,29.90,South,190,1.0,1.0,97,0.76,,,0.53,Wunderground v.1.15,2013-08-09 09:30:00,
2013-08-09 05:35:00,70.7,69.8,29.89,ESE,117,0.0,5.0,97,1.24,,,0.67,Wunderground v.1.15,2013-08-09 09:35:00,
2013-08-09 05:40:00,70.6,69.7,29.90,SSE,168,0.0,5.0,97,1.29,,,0.79,Wunderground v.1.15,2013-08-09 09:40:00,
2013-08-09 05:45:00,70.6,69.7,29.89,SSE,168,0.0,5.0,97,1.20,,,0.88,Wunderground v.1.15,2013-08-09 09:45:00,
2013-08-09 05:50:00,70.6,69.7,29.89,SSE,168,0.0,5.0,97,0.35,,,0.91,Wunderground v.1.15,2013-08-09 09:50:00,
2013-08-09 05:55:00,70.6,69.7,29.89,SSE,168,0.0,5.0,97,0.10,,,0.92,Wunderground v.1.15,2013-08-09 09:55:00,
2013-08-09 06:00:00,70.6,69.7,29.89,ESE,107,0.0,5.0,97,0.14,,,0.93,Wunderground v.1.15,2013-08-09 10:00:00,
2013-08-09 06:05:00,70.6,69.7,29.89,ESE,107,0.0,5.0,97,0.14,,,0.94,Wunderground v.1.15,2013-08-09 10:05:00,
2013-08-09 06:10:00,70.6,69.7,29.89,SSE,148,0.0,5.0,97,0.06,,,0.94,Wunderground v.1.15,2013-08-09 10:10:00,
2013-08-09 06:15:00,70.5,69.6,29.89,ESE,109,0.0,5.0,97,0.06,,,0.95,Wunderground v.1.15,2013-08-09 10:15:00,
2013-08-09 06:20:00,70.5,69.6,29.89,SSE,154,0.0,5.0,97,0.06,,,0.95,Wunderground v.1.15,2013-08-09 10:20:00,
2013-08-09 06:25:00,70.5,69.6,29.89,South,170,1.0,5.0,97,0.05,,,0.96,Wunderground v.1.15,2013-08-09 10:25:00,
2013-08-09 06:30:00,70.5,69.6,29.89,SSE,166,2.0,2.0,97,0.05,,,0.96,Wunderground v.1.15,2013-08-09 10:30:00,
2013-08-09 06:35:00,70.5,69.6,29.89,SSE,151,1.0,5.0,97,0.05,,,0.97,Wunderground v.1.15,2013-08-09 10:35:00,
2013-08-09 06:40:00,70.5,69.6,29.89,South,186,1.0,1.0,97,0.24,,,0.99,Wunderground v.1.15,2013-08-09 10:40:00,
2013-08-09 06:45:00,70.5,69.6,29.89,South,175,1.0,5.0,97,0.33,,,1.02,Wunderground v.1.15,2013-08-09 10:45:00,
2013-08-09 06:50:00,70.4,69.5,29.89,ESE,123,0.0,5.0,97,0.30,,,1.05,Wunderground v.1.15,2013-08-09 10:50:00,
2013-08-09 06:55:00,70.4,69.5,29.88,SE,146,0.0,5.0,97,0.15,,,1.06,Wunderground v.1.15,2013-08-09 10:55:00,
2013-08-09 07:00:00,70.4,69.5,29.88,SSE,157,0.0,5.0,97,0.18,,,1.08,Wunderground v.1.15,2013-08-09 11:00:00,
2013-08-09 07:10:00,70.4,69.5,29.88,SSE,153,0.0,5.0,97,0.06,,,1.08,Wunderground v.1.15,2013-08-09 11:10:00,
2013-08-09 07:15:00,70.4,69.5,29.88,SSE,155,1.0,5.0,97,0.20,,,1.10,Wunderground v.1.15,2013-08-09 11:15:00,
2013-08-09 07:20:00,70.4,69.5,29.88,SSE,165,1.0,5.0,97,1.25,,,1.15,Wunderground v.1.15,2013-08-09 11:20:00,
2013-08-09 07:25:00,70.4,69.5,29.88,South,181,1.0,5.0,97,0.82,,,1.26,Wunderground v.1.15,2013-08-09 11:25:00,
2013-08-09 07:30:00,70.4,69.5,29.88,South,181,1.0,1.0,97,0.57,,,1.30,Wunderground v.1.15,2013-08-09 11:30:00,
2013-08-09 07:35:00,70.4,69.5,29.88,South,174,0.0,4.0,97,1.43,,,1.39,Wunderground v.1.15,2013-08-09 11:35:00,
2013-08-09 07:40:00,70.4,69.5,29.88,South,174,1.0,5.0,97,0.67,,,1.46,Wunderground v.1.15,2013-08-09 11:40:00,
2013-08-09 07:45:00,70.4,69.5,29.88,South,175,1.0,5.0,97,1.13,,,1.50,Wunderground v.1.15,2013-08-09 11:45:00,
2013-08-09 07:50:00,70.5,69.6,29.88,South,175,1.0,1.0,97,0.27,,,1.53,Wunderground v.1.15,2013-08-09 11:50:00,
2013-08-09 07:55:00,70.4,69.5,29.88,South,175,0.0,5.0,97,0.18,,,1.54,Wunderground v.1.15,2013-08-09 11:55:00,
2013-08-09 08:00:00,70.5,69.6,29.87,South,175,0.0,5.0,97,0.07,,,1.54,Wunderground v.1.15,2013-08-09 12:00:00,
2013-08-09 08:05:00,70.5,69.6,29.88,South,175,0.0,5.0,97,0.04,,,1.54,Wunderground v.1.15,2013-08-09 12:05:00,
2013-08-09 08:10:00,70.5,69.6,29.88,South,174,0.0,5.0,97,0.00,,,1.54,Wunderground v.1.15,2013-08-09 12:10:00,
2013-08-09 08:15:00,70.5,69.6,29.88,South,175,0.0,5.0,97,0.00,,,1.54,Wunderground v.1.15,2013-08-09 12:15:00,
2013-08-09 08:20:00,70.5,69.6,29.88,South,175,0.0,5.0,97,0.00,,,1.55,Wunderground v.1.15,2013-08-09 12:20:00,
2013-08-09 08:25:00,70.5,69.6,29.88,South,175,0.0,5.0,97,0.11,,,1.56,Wunderground v.1.15,2013-08-09 12:25:00,
2013-08-09 08:30:00,70.4,69.5,29.87,South,169,0.0,5.0,97,0.08,,,1.57,Wunderground v.1.15,2013-08-09 12:30:00,
2013-08-09 08:35:00,70.4,69.5,29.87,SSW,195,0.0,5.0,97,0.28,,,1.59,Wunderground v.1.15,2013-08-09 12:35:00,
2013-08-09 08:40:00,70.3,69.4,29.87,SE,143,0.0,5.0,97,0.23,,,1.61,Wunderground v.1.15,2013-08-09 12:40:00,
2013-08-09 08:45:00,70.3,69.4,29.87,East,86,0.0,5.0,97,0.28,,,1.63,Wunderground v.1.15,2013-08-09 12:45:00,
2013-08-09 08:50:00,70.3,69.4,29.86,East,86,0.0,5.0,97,0.34,,,1.66,Wunderground v.1.15,2013-08-09 12:50:00,
2013-08-09 08:55:00,70.2,69.3,29.86,East,86,0.0,5.0,97,0.28,,,1.68,Wunderground v.1.15,2013-08-09 12:55:00,
2013-08-09 09:05:00,70.2,69.3,29.86,SSE,158,0.0,5.0,97,0.25,,,1.72,Wunderground v.1.15,2013-08-09 13:05:00,
2013-08-09 09:10:00,70.3,69.4,29.86,SSE,158,0.0,5.0,97,0.20,,,1.73,Wunderground v.1.15,2013-08-09 13:10:00,
2013-08-09 09:15:00,70.3,69.4,29.86,SSE,158,0.0,5.0,97,0.12,,,1.74,Wunderground v.1.15,2013-08-09 13:15:00,
2013-08-09 09:20:00,70.4,69.5,29.85,SSE,157,0.0,5.0,97,0.11,,,1.75,Wunderground v.1.15,2013-08-09 13:20:00,
2013-08-09 09:25:00,70.4,69.5,29.85,SSE,157,0.0,5.0,97,0.15,,,1.77,Wunderground v.1.15,2013-08-09 13:25:00,
2013-08-09 09:30:00,70.4,69.5,29.85,SSE,157,0.0,5.0,97,0.26,,,1.79,Wunderground v.1.15,2013-08-09 13:30:00,
2013-08-09 09:35:00,70.5,69.6,29.85,SSE,157,0.0,5.0,97,0.19,,,1.81,Wunderground v.1.15,2013-08-09 13:35:00,
2013-08-09 09:40:00,70.4,69.5,29.85,SSE,157,0.0,5.0,97,1.03,,,1.86,Wunderground v.1.15,2013-08-09 13:40:00,
2013-08-09 09:45:00,70.5,69.6,29.85,SSE,157,0.0,5.0,97,1.06,,,1.94,Wunderground v.1.15,2013-08-09 13:45:00,
2013-08-09 09:50:00,70.5,69.6,29.85,SSE,157,0.0,5.0,97,0.61,,,2.02,Wunderground v.1.15,2013-08-09 13:50:00,
2013-08-09 09:55:00,70.6,69.7,29.84,SSE,157,0.0,5.0,97,0.47,,,2.06,Wunderground v.1.15,2013-08-09 13:55:00,
2013-08-09 10:00:00,70.7,69.8,29.84,SSE,157,0.0,5.0,97,0.57,,,2.10,Wunderground v.1.15,2013-08-09 14:00:00,
2013-08-09 10:05:00,70.7,69.8,29.84,SSE,157,0.0,5.0,97,0.81,,,2.16,Wunderground v.1.15,2013-08-09 14:05:00,
2013-08-09 10:10:00,70.8,69.9,29.84,SSE,157,0.0,5.0,97,0.68,,,2.23,Wunderground v.1.15,2013-08-09 14:10:00,
2013-08-09 10:15:00,70.8,69.9,29.84,SSE,157,0.0,5.0,97,0.68,,,2.29,Wunderground v.1.15,2013-08-09 14:15:00,
2013-08-09 10:20:00,70.8,69.9,29.84,SSE,157,0.0,5.0,97,0.59,,,2.32,Wunderground v.1.15,2013-08-09 14:20:00,
2013-08-09 10:25:00,70.8,69.9,29.84,SSE,157,0.0,5.0,97,1.14,,,2.42,Wunderground v.1.15,2013-08-09 14:25:00,
2013-08-09 10:30:00,70.9,70.0,29.84,SSE,157,0.0,5.0,97,0.23,,,2.46,Wunderground v.1.15,2013-08-09 14:30:00,
2013-08-09 10:35:00,70.9,70.0,29.84,SSE,157,0.0,5.0,97,0.20,,,2.48,Wunderground v.1.15,2013-08-09 14:35:00,
2013-08-09 10:40:00,71.0,70.1,29.84,SSE,157,0.0,5.0,97,0.16,,,2.49,Wunderground v.1.15,2013-08-09 14:40:00,
2013-08-09 10:45:00,71.2,70.6,29.83,SSE,157,0.0,5.0,98,0.26,,,2.51,Wunderground v.1.15,2013-08-09 14:45:00,
2013-08-09 10:50:00,71.2,70.6,29.83,SSE,157,0.0,5.0,98,0.09,,,2.51,Wunderground v.1.15,2013-08-09 14:50:00,
2013-08-09 10:55:00,71.3,70.7,29.83,SSE,157,0.0,5.0,98,0.09,,,2.52,Wunderground v.1.15,2013-08-09 14:55:00,
2013-08-09 11:00:00,71.2,70.3,29.83,SSE,157,0.0,5.0,97,0.06,,,2.52,Wunderground v.1.15,2013-08-09 15:00:00,
2013-08-09 11:05:00,71.3,70.7,29.83,SSE,157,0.0,5.0,98,0.04,,,2.52,Wunderground v.1.15,2013-08-09 15:05:00,
2013-08-09 11:10:00,71.4,70.5,29.82,East,97,0.0,5.0,97,0.00,,,2.52,Wunderground v.1.15,2013-08-09 15:10:00,
2013-08-09 11:15:00,71.4,70.5,29.82,SSE,148,0.0,5.0,97,0.00,,,2.52,Wunderground v.1.15,2013-08-09 15:15:00,
2013-08-09 11:20:00,71.4,70.5,29.82,SSE,148,0.0,5.0,97,0.00,,,2.52,Wunderground v.1.15,2013-08-09 15:20:00,
2013-08-09 11:25:00,71.5,70.6,29.82,SSE,148,0.0,5.0,97,0.00,,,2.52,Wunderground v.1.15,2013-08-09 15:25:00,
2013-08-09 11:30:00,71.6,70.7,29.82,SSE,148,0.0,5.0,97,0.00,,,2.52,Wunderground v.1.15,2013-08-09 15:30:00,
2013-08-09 11:35:00,71.6,70.7,29.82,SSE,148,0.0,5.0,97,0.00,,,2.52,Wunderground v.1.15,2013-08-09 15:35:00,
2013-08-09 11:40:00,71.7,71.1,29.82,SSE,148,0.0,5.0,98,0.00,,,2.52,Wunderground v.1.15,2013-08-09 15:40:00,
2013-08-09 11:45:00,71.9,71.3,29.82,SSE,148,0.0,5.0,98,0.00,,,2.52,Wunderground v.1.15,2013-08-09 15:45:00,
2013-08-09 11:50:00,72.0,71.4,29.82,SSE,148,0.0,5.0,98,0.00,,,2.52,Wunderground v.1.15,2013-08-09 15:50:00,
2013-08-09 11:55:00,71.9,71.0,29.81,SSE,148,0.0,5.0,97,0.00,,,2.52,Wunderground v.1.15,2013-08-09 15:55:00,
2013-08-09 12:00:00,71.9,71.0,29.81,SSE,148,0.0,5.0,97,0.00,,,2.52,Wunderground v.1.15,2013-08-09 16:00:00,
2013-08-09 12:05:00,72.1,71.2,29.81,SSE,148,0.0,5.0,97,0.00,,,2.52,Wunderground v.1.15,2013-08-09 16:05:00,
2013-08-09 12:10:00,72.3,71.4,29.81,SSE,148,0.0,5.0,97,0.00,,,2.52,Wunderground v.1.15,2013-08-09 16:10:00,
2013-08-09 12:15:00,72.5,71.9,29.80,SSE,148,0.0,5.0,98,0.00,,,2.52,Wunderground v.1.15,2013-08-09 16:15:00,
2013-08-09 12:20:00,72.7,72.1,29.80,SSE,148,0.0,5.0,98,0.00,,,2.52,Wunderground v.1.15,2013-08-09 16:20:00,
2013-08-09 12:25:00,72.9,72.3,29.79,SSE,148,0.0,5.0,98,0.00,,,2.52,Wunderground v.1.15,2013-08-09 16:25:00,
2013-08-09 12:30:00,73.3,72.7,29.79,SSE,148,0.0,5.0,98,0.00,,,2.52,Wunderground v.1.15,2013-08-09 16:30:00,
2013-08-09 12:35:00,73.8,73.2,29.79,SSE,148,0.0,5.0,98,0.00,,,2.52,Wunderground v.1.15,2013-08-09 16:35:00,
2013-08-09 12:40:00,74.0,73.4,29.79,SSE,155,0.0,5.0,98,0.00,,,2.52,Wunderground v.1.15,2013-08-09 16:40:00,
2013-08-09 12:45:00,74.0,73.4,29.79,SSE,155,0.0,5.0,98,0.00,,,2.52,Wunderground v.1.15,2013-08-09 16:45:00,
2013-08-09 12:50:00,74.0,73.1,29.78,SSE,155,0.0,5.0,97,0.00,,,2.52,Wunderground v.1.15,2013-08-09 16:50:00,
2013-08-09 12:55:00,74.4,73.5,29.78,SSE,155,0.0,5.0,97,0.00,,,2.52,Wunderground v.1.15,2013-08-09 16:55:00,
2013-08-09 13:00:00,74.8,73.9,29.79,WNW,298,0.0,5.0,97,0.00,,,2.52,Wunderground v.1.15,2013-08-09 17:00:00,
2013-08-09 13:05:00,74.8,73.6,29.79,WNW,298,0.0,5.0,96,0.00,,,2.52,Wunderground v.1.15,2013-08-09 17:05:00,
2013-08-09 13:10:00,75.1,73.9,29.79,WNW,298,0.0,5.0,96,0.00,,,2.52,Wunderground v.1.15,2013-08-09 17:10:00,
2013-08-09 13:15:00,75.2,73.7,29.79,WNW,298,0.0,5.0,95,0.00,,,2.52,Wunderground v.1.15,2013-08-09 17:15:00,
2013-08-09 13:20:00,75.6,74.1,29.79,WNW,298,0.0,5.0,95,0.00,,,2.52,Wunderground v.1.15,2013-08-09 17:20:00,
2013-08-09 13:25:00,75.7,73.8,29.79,WNW,298,0.0,5.0,94,0.00,,,2.52,Wunderground v.1.15,2013-08-09 17:25:00,
2013-08-09 13:30:00,75.8,73.6,29.79,WNW,298,0.0,5.0,93,0.00,,,2.52,Wunderground v.1.15,2013-08-09 17:30:00,
2013-08-09 13:35:00,76.1,74.2,29.79,WNW,298,0.0,5.0,94,0.00,,,2.52,Wunderground v.1.15,2013-08-09 17:35:00,
2013-08-09 13:40:00,76.3,74.4,29.79,WNW,298,0.0,5.0,94,0.00,,,2.52,Wunderground v.1.15,2013-08-09 17:40:00,
2013-08-09 13:45:00,76.5,74.6,29.79,WNW,298,0.0,5.0,94,0.00,,,2.52,Wunderground v.1.15,2013-08-09 17:45:00,
2013-08-09 13:50:00,76.6,74.7,29.79,WNW,298,0.0,5.0,94,0.00,,,2.52,Wunderground v.1.15,2013-08-09 17:50:00,
2013-08-09 13:55:00,76.8,74.9,29.79,WNW,298,0.0,5.0,94,0.00,,,2.52,Wunderground v.1.15,2013-08-09 17:55:00,
2013-08-09 14:00:00,76.8,74.6,29.79,WNW,298,0.0,5.0,93,0.00,,,2.52,Wunderground v.1.15,2013-08-09 18:00:00,
2013-08-09 14:05:00,76.7,74.5,29.79,WNW,298,0.0,5.0,93,0.00,,,2.52,Wunderground v.1.15,2013-08-09 18:05:00,
2013-08-09 14:10:00,76.4,74.2,29.79,WNW,298,0.0,5.0,93,0.00,,,2.52,Wunderground v.1.15,2013-08-09 18:10:00,
2013-08-09 14:15:00,76.3,74.1,29.79,North,349,0.0,5.0,93,0.00,,,2.52,Wunderground v.1.15,2013-08-09 18:15:00,
2013-08-09 14:20:00,76.2,74.0,29.79,NNE,33,0.0,5.0,93,0.00,,,2.52,Wunderground v.1.15,2013-08-09 18:20:00,
2013-08-09 14:25:00,76.1,74.2,29.79,NE,38,0.0,5.0,94,0.00,,,2.52,Wunderground v.1.15,2013-08-09 18:25:00,
2013-08-09 14:30:00,76.1,73.9,29.79,NNE,30,0.0,5.0,93,0.00,,,2.52,Wunderground v.1.15,2013-08-09 18:30:00,
2013-08-09 14:35:00,76.1,74.2,29.79,NNE,30,0.0,5.0,94,0.00,,,2.52,Wunderground v.1.15,2013-08-09 18:35:00,
2013-08-09 14:40:00,76.1,74.2,29.79,NNE,30,0.0,5.0,94,0.00,,,2.52,Wunderground v.1.15,2013-08-09 18:40:00,
2013-08-09 14:45:00,76.1,74.2,29.80,NNE,30,0.0,5.0,94,0.00,,,2.52,Wunderground v.1.15,2013-08-09 18:45:00,
2013-08-09 14:50:00,76.0,73.8,29.80,NNE,30,0.0,5.0,93,0.00,,,2.52,Wunderground v.1.15,2013-08-09 18:50:00,
2013-08-09 14:55:00,76.0,74.1,29.80,NNE,30,0.0,5.0,94,0.00,,,2.52,Wunderground v.1.15,2013-08-09 18:55:00,
2013-08-09 15:00:00,75.9,74.0,29.80,NNE,30,0.0,5.0,94,0.00,,,2.52,Wunderground v.1.15,2013-08-09 19:00:00,
2013-08-09 15:05:00,75.7,73.5,29.80,NE,35,0.0,5.0,93,0.00,,,2.52,Wunderground v.1.15,2013-08-09 19:05:00,
2013-08-09 15:10:00,75.4,73.2,29.80,NE,35,0.0,5.0,93,0.00,,,2.52,Wunderground v.1.15,2013-08-09 19:10:00,
2013-08-09 15:15:00,75.1,72.9,29.80,NE,35,0.0,5.0,93,0.00,,,2.52,Wunderground v.1.15,2013-08-09 19:15:00,
2013-08-09 15:20:00,74.9,72.7,29.80,North,360,0.0,5.0,93,0.00,,,2.52,Wunderground v.1.15,2013-08-09 19:20:00,
2013-08-09 15:25:00,74.5,72.0,29.80,WNW,298,0.0,5.0,92,0.00,,,2.52,Wunderground v.1.15,2013-08-09 19:25:00,
2013-08-09 15:30:00,74.1,71.0,29.80,West,281,1.0,5.0,90,0.00,,,2.52,Wunderground v.1.15,2013-08-09 19:30:00,
2013-08-09 15:35:00,73.7,70.6,29.80,NW,315,1.0,5.0,90,0.23,,,2.55,Wunderground v.1.15,2013-08-09 19:35:00,
2013-08-09 15:40:00,73.2,70.1,29.80,West,279,0.0,5.0,90,0.23,,,2.56,Wunderground v.1.15,2013-08-09 19:40:00,
2013-08-09 15:45:00,72.6,70.1,29.81,West,279,0.0,5.0,92,0.15,,,2.57,Wunderground v.1.15,2013-08-09 19:45:00,
2013-08-09 15:50:00,72.0,69.5,29.81,West,279,0.0,5.0,92,0.11,,,2.58,Wunderground v.1.15,2013-08-09 19:50:00,
2013-08-09 15:55:00,71.6,69.8,29.81,SSW,194,0.0,5.0,94,0.10,,,2.59,Wunderground v.1.15,2013-08-09 19:55:00,
2013-08-09 16:00:00,71.4,69.6,29.80,SSW,194,0.0,5.0,94,0.16,,,2.60,Wunderground v.1.15,2013-08-09 20:00:00,
2013-08-09 16:05:00,71.2,69.4,29.80,SSW,194,0.0,5.0,94,0.10,,,2.61,Wunderground v.1.15,2013-08-09 20:05:00,
2013-08-09 16:10:00,71.1,69.3,29.79,SSW,194,0.0,5.0,94,0.08,,,2.61,Wunderground v.1.15,2013-08-09 20:10:00,
2013-08-09 16:15:00,71.3,69.8,29.80,SSW,194,0.0,5.0,95,0.05,,,2.61,Wunderground v.1.15,2013-08-09 20:15:00,
2013-08-09 16:20:00,71.2,69.7,29.80,SSW,194,0.0,5.0,95,0.00,,,2.61,Wunderground v.1.15,2013-08-09 20:20:00,
2013-08-09 16:25:00,71.4,69.9,29.80,SSW,194,0.0,5.0,95,0.00,,,2.61,Wunderground v.1.15,2013-08-09 20:25:00,
2013-08-09 16:30:00,71.5,70.0,29.80,SSW,194,0.0,5.0,95,0.00,,,2.61,Wunderground v.1.15,2013-08-09 20:30:00,
2013-08-09 16:35:00,71.5,70.0,29.80,SSW,194,0.0,5.0,95,0.00,,,2.61,Wunderground v.1.15,2013-08-09 20:35:00,
2013-08-09 16:40:00,71.7,70.5,29.80,SSW,194,0.0,5.0,96,0.00,,,2.61,Wunderground v.1.15,2013-08-09 20:40:00,
2013-08-09 16:45:00,71.8,70.6,29.81,SSW,194,0.0,5.0,96,0.00,,,2.61,Wunderground v.1.15,2013-08-09 20:45:00,
2013-08-09 16:50:00,71.7,70.5,29.80,SSW,194,0.0,5.0,96,0.00,,,2.61,Wunderground v.1.15,2013-08-09 20:50:00,
2013-08-09 16:55:00,71.7,70.5,29.80,SSW,194,0.0,5.0,96,0.00,,,2.61,Wunderground v.1.15,2013-08-09 20:55:00,
2013-08-09 17:00:00,71.4,69.9,29.80,SSW,194,0.0,5.0,95,0.00,,,2.61,Wunderground v.1.15,2013-08-09 21:00:00,
2013-08-09 17:05:00,71.3,69.8,29.80,SSW,194,0.0,5.0,95,0.00,,,2.61,Wunderground v.1.15,2013-08-09 21:05:00,
2013-08-09 17:10:00,71.3,69.8,29.80,SSW,194,0.0,5.0,95,0.00,,,2.61,Wunderground v.1.15,2013-08-09 21:10:00,
2013-08-09 17:15:00,71.6,70.4,29.80,SSW,194,0.0,5.0,96,0.00,,,2.61,Wunderground v.1.15,2013-08-09 21:15:00,
2013-08-09 17:20:00,71.7,70.2,29.80,NNW,329,0.0,5.0,95,0.00,,,2.61,Wunderground v.1.15,2013-08-09 21:20:00,
2013-08-09 17:25:00,71.9,70.4,29.80,NNW,329,0.0,5.0,95,0.00,,,2.61,Wunderground v.1.15,2013-08-09 21:25:00,
2013-08-09 17:30:00,72.1,70.6,29.80,NNW,329,0.0,5.0,95,0.00,,,2.61,Wunderground v.1.15,2013-08-09 21:30:00,
2013-08-09 17:35:00,72.2,70.7,29.80,NNW,329,0.0,5.0,95,0.00,,,2.61,Wunderground v.1.15,2013-08-09 21:35:00,
2013-08-09 17:45:00,72.5,70.7,29.80,NNW,329,0.0,5.0,94,0.00,,,2.61,Wunderground v.1.15,2013-08-09 21:45:00,
2013-08-09 17:50:00,72.8,71.0,29.80,NNW,329,0.0,5.0,94,0.00,,,2.61,Wunderground v.1.15,2013-08-09 21:50:00,
2013-08-09 17:55:00,73.0,71.2,29.80,NNW,329,0.0,5.0,94,0.00,,,2.61,Wunderground v.1.15,2013-08-09 21:55:00,
2013-08-09 18:00:00,73.3,71.8,29.80,NNW,329,0.0,5.0,95,0.00,,,2.61,Wunderground v.1.15,2013-08-09 22:00:00,
2013-08-09 18:05:00,73.2,71.4,29.80,NNW,329,0.0,5.0,94,0.00,,,2.61,Wunderground v.1.15,2013-08-09 22:05:00,
2013-08-09 18:10:00,73.3,71.8,29.80,NNW,329,0.0,5.0,95,0.00,,,2.61,Wunderground v.1.15,2013-08-09 22:10:00,
2013-08-09 18:15:00,73.5,72.0,29.80,NNW,329,0.0,5.0,95,0.00,,,2.61,Wunderground v.1.15,2013-08-09 22:15:00,
2013-08-09 18:20:00,73.6,71.8,29.80,NNW,329,0.0,5.0,94,0.00,,,2.61,Wunderground v.1.15,2013-08-09 22:20:00,
2013-08-09 18:25:00,73.8,72.3,29.80,NNW,329,0.0,5.0,95,0.00,,,2.61,Wunderground v.1.15,2013-08-09 22:25:00,
2013-08-09 18:30:00,74.0,72.5,29.80,NNW,329,0.0,5.0,95,0.00,,,2.61,Wunderground v.1.15,2013-08-09 22:30:00,
2013-08-09 18:35:00,74.3,72.8,29.80,NNW,329,0.0,5.0,95,0.00,,,2.61,Wunderground v.1.15,2013-08-09 22:35:00,
2013-08-09 18:40:00,74.4,72.6,29.81,NNW,329,0.0,5.0,94,0.00,,,2.61,Wunderground v.1.15,2013-08-09 22:40:00,
2013-08-09 18:45:00,74.4,72.9,29.80,NNW,329,0.0,5.0,95,0.00,,,2.61,Wunderground v.1.15,2013-08-09 22:45:00,
2013-08-09 18:50:00,74.5,72.7,29.81,NNW,329,0.0,5.0,94,0.00,,,2.61,Wunderground v.1.15,2013-08-09 22:50:00,
2013-08-09 18:55:00,74.4,72.6,29.80,NNW,329,0.0,5.0,94,0.00,,,2.61,Wunderground v.1.15,2013-08-09 22:55:00,
2013-08-09 19:00:00,74.4,72.6,29.81,NNW,329,0.0,5.0,94,0.00,,,2.61,Wunderground v.1.15,2013-08-09 23:00:00,
2013-08-09 19:05:00,74.2,72.0,29.81,NNW,329,0.0,5.0,93,0.00,,,2.61,Wunderground v.1.15,2013-08-09 23:05:00,
2013-08-09 19:10:00,74.0,72.2,29.81,NNW,329,0.0,5.0,94,0.00,,,2.61,Wunderground v.1.15,2013-08-09 23:10:00,
2013-08-09 19:15:00,74.0,72.2,29.81,NNW,329,0.0,5.0,94,0.00,,,2.61,Wunderground v.1.15,2013-08-09 23:15:00,
2013-08-09 19:20:00,73.7,71.5,29.81,NNW,329,0.0,5.0,93,0.00,,,2.61,Wunderground v.1.15,2013-08-09 23:20:00,
2013-08-09 19:25:00,73.5,71.4,29.81,NNW,329,0.0,5.0,93,0.00,,,2.61,Wunderground v.1.15,2013-08-09 23:25:00,
2013-08-09 19:35:00,73.0,70.9,29.81,NNW,329,0.0,5.0,93,0.00,,,2.61,Wunderground v.1.15,2013-08-09 23:35:00,
2013-08-09 19:40:00,72.7,70.6,29.81,NNW,329,0.0,5.0,93,0.00,,,2.61,Wunderground v.1.15,2013-08-09 23:40:00,
2013-08-09 19:45:00,72.4,70.3,29.81,NNW,329,0.0,5.0,93,0.00,,,2.61,Wunderground v.1.15,2013-08-09 23:45:00,
2013-08-09 19:50:00,72.3,70.5,29.81,NNW,329,0.0,5.0,94,0.00,,,2.61,Wunderground v.1.15,2013-08-09 23:50:00,
2013-08-09 19:55:00,72.1,70.3,29.81,NNW,329,0.0,5.0,94,0.00,,,2.61,Wunderground v.1.15,2013-08-09 23:55:00,
2013-08-09 20:00:00,72.0,70.2,29.82,NNW,329,0.0,5.0,94,0.00,,,2.61,Wunderground v.1.15,2013-08-10 00:00:00,
2013-08-09 20:05:00,71.8,70.0,29.82,NNW,329,0.0,5.0,94,0.00,,,2.61,Wunderground v.1.15,2013-08-10 00:05:00,
2013-08-09 20:10:00,71.7,69.9,29.82,NNW,329,0.0,5.0,94,0.00,,,2.61,Wunderground v.1.15,2013-08-10 00:10:00,
2013-08-09 20:15:00,71.5,69.7,29.82,NNW,329,0.0,5.0,94,0.00,,,2.61,Wunderground v.1.15,2013-08-10 00:15:00,
2013-08-09 20:25:00,71.1,69.3,29.82,NNW,329,0.0,5.0,94,0.00,,,2.61,Wunderground v.1.15,2013-08-10 00:25:00,
2013-08-09 20:30:00,70.9,69.1,29.82,NNW,329,0.0,5.0,94,0.00,,,2.61,Wunderground v.1.15,2013-08-10 00:30:00,
2013-08-09 20:35:00,70.8,69.0,29.82,NNW,329,0.0,5.0,94,0.00,,,2.61,Wunderground v.1.15,2013-08-10 00:35:00,
2013-08-09 20:40:00,70.6,68.8,29.82,NNW,329,0.0,5.0,94,0.00,,,2.61,Wunderground v.1.15,2013-08-10 00:40:00,
2013-08-09 20:45:00,70.4,68.6,29.82,NNW,329,0.0,5.0,94,0.00,,,2.61,Wunderground v.1.15,2013-08-10 00:45:00,
2013-08-09 20:50:00,70.2,68.7,29.82,NNW,329,0.0,5.0,95,0.00,,,2.61,Wunderground v.1.15,2013-08-10 00:50:00,
2013-08-09 20:55:00,70.0,68.5,29.82,NNW,329,0.0,5.0,95,0.00,,,2.61,Wunderground v.1.15,2013-08-10 00:55:00,
2013-08-09 21:00:00,69.9,68.4,29.82,NNW,329,0.0,5.0,95,0.00,,,2.61,Wunderground v.1.15,2013-08-10 01:00:00,
2013-08-09 21:05:00,69.8,68.3,29.83,NNW,329,0.0,5.0,95,0.00,,,2.61,Wunderground v.1.15,2013-08-10 01:05:00,
2013-08-09 21:10:00,69.7,68.2,29.83,NNW,329,0.0,5.0,95,0.00,,,2.61,Wunderground v.1.15,2013-08-10 01:10:00,
2013-08-09 21:15:00,69.5,68.0,29.83,NNW,329,0.0,5.0,95,0.00,,,2.61,Wunderground v.1.15,2013-08-10 01:15:00,
2013-08-09 21:20:00,69.4,67.9,29.83,NNW,329,0.0,5.0,95,0.00,,,2.61,Wunderground v.1.15,2013-08-10 01:20:00,
2013-08-09 21:25:00,69.4,67.9,29.83,NNW,329,0.0,5.0,95,0.00,,,2.61,Wunderground v.1.15,2013-08-10 01:25:00,
2013-08-09 21:30:00,69.2,67.7,29.83,NNW,329,0.0,5.0,95,0.00,,,2.61,Wunderground v.1.15,2013-08-10 01:30:00,
2013-08-09 21:40:00,69.0,67.8,29.83,NNW,329,0.0,5.0,96,0.00,,,2.61,Wunderground v.1.15,2013-08-10 01:40:00,
2013-08-09 21:45:00,68.9,67.7,29.83,NNW,329,0.0,5.0,96,0.00,,,2.61,Wunderground v.1.15,2013-08-10 01:45:00,
2013-08-09 21:50:00,68.8,67.6,29.83,NNW,329,0.0,5.0,96,0.00,,,2.61,Wunderground v.1.15,2013-08-10 01:50:00,
2013-08-09 21:55:00,68.8,67.6,29.83,NNW,329,0.0,5.0,96,0.00,,,2.61,Wunderground v.1.15,2013-08-10 01:55:00,
2013-08-09 22:00:00,68.7,67.5,29.82,NNW,329,0.0,5.0,96,0.00,,,2.61,Wunderground v.1.15,2013-08-10 02:00:00,
2013-08-09 22:05:00,68.7,67.5,29.82,NNW,329,0.0,5.0,96,0.00,,,2.61,Wunderground v.1.15,2013-08-10 02:05:00,
2013-08-09 22:10:00,68.6,67.4,29.82,NNW,329,0.0,5.0,96,0.00,,,2.61,Wunderground v.1.15,2013-08-10 02:10:00,
2013-08-09 22:15:00,68.5,67.3,29.83,NNW,329,0.0,5.0,96,0.00,,,2.61,Wunderground v.1.15,2013-08-10 02:15:00,
2013-08-09 22:20:00,68.5,67.3,29.82,NNW,329,0.0,5.0,96,0.00,,,2.61,Wunderground v.1.15,2013-08-10 02:20:00,
2013-08-09 22:25:00,68.5,67.3,29.83,NNW,329,0.0,5.0,96,0.00,,,2.61,Wunderground v.1.15,2013-08-10 02:25:00,
2013-08-09 22:30:00,68.4,67.2,29.83,NNW,329,0.0,5.0,96,0.00,,,2.61,Wunderground v.1.15,2013-08-10 02:30:00,
2013-08-09 22:35:00,68.3,67.1,29.84,NNW,329,0.0,5.0,96,0.00,,,2.61,Wunderground v.1.15,2013-08-10 02:35:00,
2013-08-09 22:40:00,68.2,67.0,29.84,NNW,329,0.0,5.0,96,0.00,,,2.61,Wunderground v.1.15,2013-08-10 02:40:00,
2013-08-09 22:45:00,68.2,67.0,29.84,NNW,329,0.0,5.0,96,0.00,,,2.61,Wunderground v.1.15,2013-08-10 02:45:00,
2013-08-09 22:50:00,68.3,67.1,29.84,NNW,329,0.0,5.0,96,0.00,,,2.61,Wunderground v.1.15,2013-08-10 02:50:00,
2013-08-09 22:55:00,68.2,67.0,29.84,NNW,329,0.0,5.0,96,0.00,,,2.61,Wunderground v.1.15,2013-08-10 02:55:00,
2013-08-09 23:00:00,68.1,66.9,29.84,NNW,329,0.0,5.0,96,0.00,,,2.61,Wunderground v.1.15,2013-08-10 03:00:00,
2013-08-09 23:05:00,68.0,66.8,29.84,NNW,329,0.0,5.0,96,0.00,,,2.61,Wunderground v.1.15,2013-08-10 03:05:00,
2013-08-09 23:10:00,67.8,66.6,29.84,NNW,329,0.0,5.0,96,0.00,,,2.61,Wunderground v.1.15,2013-08-10 03:10:00,
2013-08-09 23:15:00,67.7,66.5,29.85,NNW,329,0.0,5.0,96,0.00,,,2.61,Wunderground v.1.15,2013-08-10 03:15:00,
2013-08-09 23:20:00,67.6,66.4,29.85,NNW,329,0.0,5.0,96,0.00,,,2.61,Wunderground v.1.15,2013-08-10 03:20:00,
2013-08-09 23:25:00,67.4,66.2,29.85,NNW,329,0.0,5.0,96,0.00,,,2.61,Wunderground v.1.15,2013-08-10 03:25:00,
2013-08-09 23:30:00,67.4,66.2,29.85,NNW,329,0.0,5.0,96,0.00,,,2.61,Wunderground v.1.15,2013-08-10 03:30:00,
2013-08-09 23:35:00,67.3,66.1,29.85,NNW,329,0.0,5.0,96,0.00,,,2.61,Wunderground v.1.15,2013-08-10 03:35:00,
2013-08-09 23:40:00,67.2,66.0,29.85,NNW,329,0.0,5.0,96,0.00,,,2.61,Wunderground v.1.15,2013-08-10 03:40:00,
2013-08-09 23:45:00,67.1,65.9,29.86,NNW,329,0.0,5.0,96,0.00,,,2.61,Wunderground v.1.15,2013-08-10 03:45:00,
2013-08-09 23:50:00,67.0,65.8,29.86,NNW,329,0.0,5.0,96,0.00,,,2.61,Wunderground v.1.15,2013-08-10 03:50:00,
2013-08-09 23:55:00,67.0,65.8,29.86,NNW,329,0.0,5.0,96,0.00,,,2.61,Wunderground v.1.15,2013-08-10 03:55:00,